�������l�o���
Date,Time,MP-1(��Sv/h),MP-2(��Sv/h),MP-3(��Sv/h),MP-4(��Sv/h),MP-5(��Sv/h),MP-6(��Sv/h),MP-7(��Sv/h),MP-8(��Sv/h),����,����(m/s),���J
2022/01/08,00:00,0.582,0.883,0.556,1.083,0.750,0.352,0.613,0.580,��쓌,1.7,��
2022/01/08,00:10,0.582,0.879,0.554,1.082,0.750,0.351,0.612,0.580,��,1.7,��
2022/01/08,00:20,0.581,0.883,0.554,1.083,0.750,0.350,0.612,0.581,��,1.2,��
2022/01/08,00:30,0.581,0.884,0.554,1.080,0.751,0.350,0.613,0.581,��쓌,0.8,��
2022/01/08,00:40,0.582,0.880,0.557,1.083,0.750,0.351,0.613,0.581,-,CALM,��
2022/01/08,00:50,0.582,0.884,0.554,1.082,0.750,0.350,0.613,0.582,�k,0.9,��
2022/01/08,01:00,0.582,0.883,0.554,1.082,0.749,0.351,0.614,0.582,�k,1.7,��
2022/01/08,01:10,0.579,0.884,0.556,1.081,0.750,0.351,0.611,0.581,�k�k��,3.6,��
2022/01/08,01:20,0.581,0.881,0.555,1.081,0.748,0.352,0.613,0.581,�k��,6.0,��
2022/01/08,01:30,0.580,0.881,0.556,1.080,0.748,0.352,0.612,0.581,�k��,7.8,��
2022/01/08,01:40,0.581,0.880,0.556,1.082,0.749,0.351,0.613,0.582,�k��,7.4,��
2022/01/08,01:50,0.582,0.881,0.556,1.082,0.749,0.351,0.613,0.580,�k��,5.4,��
2022/01/08,02:00,0.582,0.884,0.556,1.082,0.750,0.350,0.613,0.582,�k��,5.0,��
2022/01/08,02:10,0.582,0.884,0.556,1.081,0.750,0.350,0.612,0.582,�k��,3.3,��
2022/01/08,02:20,0.580,0.881,0.555,1.085,0.751,0.351,0.612,0.581,���k��,2.3,��
2022/01/08,02:30,0.582,0.881,0.557,1.080,0.748,0.351,0.612,0.579,�k��,2.3,��
2022/01/08,02:40,0.582,0.885,0.555,1.082,0.750,0.351,0.612,0.581,���k��,3.0,��
2022/01/08,02:50,0.581,0.880,0.557,1.084,0.749,0.350,0.613,0.581,���k��,2.0,��
2022/01/08,03:00,0.583,0.881,0.555,1.083,0.748,0.352,0.613,0.580,���k��,1.4,��
2022/01/08,03:10,0.582,0.880,0.557,1.081,0.749,0.351,0.612,0.580,���k��,2.5,��
2022/01/08,03:20,0.582,0.882,0.557,1.081,0.751,0.351,0.612,0.582,���k��,2.8,��
2022/01/08,03:30,0.581,0.878,0.556,1.082,0.749,0.351,0.611,0.581,�k��,2.5,��
2022/01/08,03:40,0.581,0.881,0.556,1.082,0.750,0.351,0.611,0.582,���k��,2.9,��
2022/01/08,03:50,0.581,0.881,0.557,1.081,0.750,0.352,0.612,0.581,�k��,1.9,��
2022/01/08,04:00,0.582,0.882,0.555,1.082,0.748,0.350,0.611,0.581,���k��,1.4,��
2022/01/08,04:10,0.582,0.880,0.554,1.082,0.749,0.351,0.614,0.581,���k��,2.6,��
2022/01/08,04:20,0.582,0.879,0.554,1.080,0.749,0.350,0.612,0.581,���k��,3.3,��
2022/01/08,04:30,0.580,0.881,0.556,1.083,0.750,0.350,0.612,0.581,��,3.4,��
2022/01/08,04:40,0.583,0.880,0.555,1.081,0.749,0.350,0.612,0.582,��,4.2,��
2022/01/08,04:50,0.580,0.881,0.555,1.079,0.747,0.351,0.613,0.581,��,3.3,��
2022/01/08,05:00,0.581,0.880,0.555,1.082,0.749,0.352,0.612,0.581,��,3.2,��
2022/01/08,05:10,0.581,0.882,0.556,1.081,0.746,0.351,0.612,0.580,���k��,2.8,��
2022/01/08,05:20,0.579,0.881,0.556,1.081,0.749,0.350,0.611,0.581,��,2.5,��
2022/01/08,05:30,0.581,0.879,0.556,1.080,0.749,0.350,0.611,0.581,��,2.9,��
2022/01/08,05:40,0.581,0.880,0.555,1.081,0.748,0.352,0.612,0.580,��,3.5,��
2022/01/08,05:50,0.579,0.880,0.555,1.082,0.750,0.351,0.611,0.581,��,3.8,��
2022/01/08,06:00,0.581,0.880,0.556,1.082,0.747,0.353,0.613,0.581,��,3.9,��
2022/01/08,06:10,0.582,0.879,0.554,1.082,0.747,0.350,0.612,0.580,���k��,3.0,��
2022/01/08,06:20,0.583,0.880,0.555,1.081,0.750,0.350,0.613,0.579,��,2.6,��
2022/01/08,06:30,0.581,0.880,0.554,1.083,0.748,0.350,0.612,0.580,���쐼,2.9,��
2022/01/08,06:40,0.582,0.879,0.556,1.082,0.746,0.352,0.611,0.581,��,2.8,��
2022/01/08,06:50,0.581,0.880,0.555,1.081,0.749,0.351,0.612,0.581,���쐼,3.1,��
2022/01/08,07:00,0.581,0.881,0.556,1.083,0.747,0.351,0.612,0.581,��,3.8,��
2022/01/08,07:10,0.581,0.881,0.555,1.080,0.747,0.351,0.612,0.580,��,3.6,��
2022/01/08,07:20,0.581,0.879,0.555,1.082,0.748,0.351,0.613,0.580,��,3.2,��
2022/01/08,07:30,0.581,0.882,0.555,1.080,0.748,0.352,0.614,0.581,��,3.0,��
2022/01/08,07:40,0.580,0.880,0.553,1.082,0.747,0.351,0.612,0.580,���쐼,2.2,��
2022/01/08,07:50,0.581,0.878,0.555,1.081,0.748,0.351,0.612,0.582,��쐼,2.5,��
2022/01/08,08:00,0.580,0.880,0.556,1.081,0.746,0.350,0.612,0.581,�쐼,2.6,��
2022/01/08,08:10,0.582,0.881,0.555,1.081,0.746,0.351,0.613,0.583,�쐼,2.6,��
2022/01/08,08:20,0.581,0.880,0.555,1.080,0.749,0.352,0.612,0.581,�쐼,2.5,��
2022/01/08,08:30,0.581,0.882,0.553,1.083,0.749,0.351,0.611,0.581,�쐼,2.9,��
2022/01/08,08:40,0.581,0.882,0.554,1.083,0.747,0.351,0.615,0.582,���쐼,2.2,��
2022/01/08,08:50,0.581,0.883,0.556,1.082,0.749,0.350,0.613,0.582,���쐼,1.7,��
2022/01/08,09:00,0.583,0.881,0.557,1.081,0.748,0.352,0.613,0.581,��,1.5,��
2022/01/08,09:10,0.582,0.880,0.556,1.083,0.749,0.351,0.613,0.582,�쐼,1.4,��
2022/01/08,09:20,0.583,0.881,0.554,1.082,0.748,0.350,0.614,0.581,���쐼,1.2,��
2022/01/08,09:30,0.583,0.881,0.558,1.084,0.749,0.351,0.614,0.581,��,1.9,��
2022/01/08,09:40,0.584,0.881,0.555,1.082,0.749,0.352,0.614,0.583,��,1.2,��
2022/01/08,09:50,0.583,0.883,0.557,1.084,0.749,0.353,0.614,0.581,��쓌,1.5,��
2022/01/08,10:00,0.581,0.880,0.557,1.082,0.748,0.352,0.613,0.581,��,3.6,��
2022/01/08,10:10,0.584,0.880,0.557,1.082,0.750,0.353,0.614,0.580,��,5.2,��
2022/01/08,10:20,0.582,0.881,0.556,1.082,0.746,0.352,0.613,0.583,���쐼,5.5,��
2022/01/08,10:30,0.582,0.880,0.557,1.083,0.748,0.352,0.613,0.584,��,4.6,��
2022/01/08,10:40,0.582,0.881,0.556,1.082,0.747,0.351,0.613,0.584,��,6.2,��
2022/01/08,10:50,0.583,0.880,0.557,1.082,0.748,0.351,0.614,0.581,��,5.5,��
2022/01/08,11:00,0.582,0.880,0.557,1.083,0.749,0.351,0.613,0.582,��,7.5,��
2022/01/08,11:10,0.585,0.880,0.557,1.083,0.750,0.352,0.613,0.581,��,8.6,��
2022/01/08,11:20,0.582,0.881,0.555,1.082,0.750,0.352,0.613,0.582,��,7.8,��
2022/01/08,11:30,0.583,0.882,0.558,1.084,0.749,0.350,0.614,0.582,��,7.8,��
2022/01/08,11:40,0.585,0.881,0.558,1.084,0.753,0.352,0.613,0.583,��,8.4,��
2022/01/08,11:50,0.585,0.880,0.557,1.083,0.750,0.351,0.615,0.582,��,7.4,��
2022/01/08,12:00,0.585,0.882,0.557,1.085,0.751,0.351,0.614,0.582,��,8.1,��
2022/01/08,12:10,0.584,0.880,0.556,1.083,0.751,0.352,0.616,0.582,��,7.2,��
2022/01/08,12:20,0.583,0.881,0.558,1.083,0.751,0.353,0.616,0.583,��,7.4,��
2022/01/08,12:30,0.585,0.882,0.558,1.083,0.752,0.351,0.615,0.583,��,8.4,��
2022/01/08,12:40,0.587,0.879,0.557,1.084,0.751,0.352,0.617,0.584,���쐼,7.5,��
2022/01/08,12:50,0.582,0.878,0.558,1.085,0.753,0.353,0.616,0.582,��,8.2,��
2022/01/08,13:00,0.584,0.880,0.558,1.084,0.752,0.354,0.618,0.584,��,8.5,��
2022/01/08,13:10,0.583,0.881,0.558,1.086,0.752,0.352,0.617,0.584,��,9.3,��
2022/01/08,13:20,0.583,0.883,0.557,1.085,0.753,0.352,0.616,0.583,��,9.3,��
2022/01/08,13:30,0.584,0.883,0.558,1.085,0.752,0.351,0.616,0.582,��,9.1,��
2022/01/08,13:40,0.585,0.881,0.558,1.086,0.752,0.352,0.616,0.583,��,8.7,��
2022/01/08,13:50,0.585,0.883,0.559,1.085,0.753,0.353,0.617,0.583,��,9.6,��
2022/01/08,14:00,0.585,0.883,0.558,1.085,0.753,0.352,0.615,0.582,��,6.5,��
2022/01/08,14:10,0.583,0.881,0.558,1.084,0.751,0.352,0.616,0.582,���k��,6.9,��
2022/01/08,14:20,0.585,0.883,0.556,1.087,0.752,0.354,0.614,0.585,���k��,6.7,��
2022/01/08,14:30,0.585,0.880,0.558,1.084,0.751,0.353,0.617,0.585,���k��,6.0,��
2022/01/08,14:40,0.585,0.881,0.557,1.083,0.751,0.352,0.616,0.585,���k��,7.1,��
2022/01/08,14:50,0.585,0.881,0.560,1.084,0.752,0.353,0.615,0.584,���k��,8.0,��
2022/01/08,15:00,0.583,0.883,0.557,1.085,0.754,0.354,0.616,0.586,���k��,5.7,��
2022/01/08,15:10,0.584,0.885,0.559,1.087,0.751,0.352,0.616,0.585,���k��,5.1,��
2022/01/08,15:20,0.586,0.885,0.557,1.088,0.753,0.352,0.616,0.584,��,3.5,��
2022/01/08,15:30,0.585,0.884,0.558,1.086,0.752,0.352,0.615,0.584,���k��,3.1,��
2022/01/08,15:40,0.585,0.884,0.559,1.086,0.755,0.352,0.617,0.585,��,3.0,��
2022/01/08,15:50,0.584,0.884,0.558,1.084,0.752,0.353,0.616,0.584,���k��,2.3,��
2022/01/08,16:00,0.584,0.886,0.558,1.087,0.753,0.352,0.615,0.584,��,2.6,��
2022/01/08,16:10,0.584,0.885,0.560,1.085,0.751,0.354,0.616,0.585,���쐼,2.0,��
2022/01/08,16:20,0.586,0.886,0.557,1.084,0.754,0.353,0.615,0.585,���k��,3.0,��
2022/01/08,16:30,0.586,0.883,0.558,1.085,0.753,0.352,0.615,0.584,���k��,2.0,��
2022/01/08,16:40,0.583,0.883,0.559,1.084,0.753,0.353,0.616,0.584,���k��,1.9,��
2022/01/08,16:50,0.585,0.883,0.558,1.084,0.752,0.353,0.616,0.584,��,2.3,��
2022/01/08,17:00,0.584,0.884,0.557,1.085,0.751,0.352,0.613,0.585,���k��,2.6,��
2022/01/08,17:10,0.586,0.884,0.558,1.085,0.751,0.352,0.615,0.584,���k��,5.2,��
2022/01/08,17:20,0.584,0.881,0.557,1.085,0.753,0.353,0.614,0.584,��,6.2,��
2022/01/08,17:30,0.585,0.885,0.557,1.087,0.751,0.352,0.615,0.584,��,7.5,��
2022/01/08,17:40,0.584,0.884,0.558,1.083,0.753,0.351,0.614,0.583,��,6.8,��
2022/01/08,17:50,0.586,0.884,0.557,1.085,0.752,0.352,0.614,0.582,��,6.2,��
2022/01/08,18:00,0.583,0.882,0.557,1.084,0.753,0.352,0.616,0.584,���k��,7.0,��
2022/01/08,18:10,0.583,0.884,0.557,1.083,0.752,0.351,0.615,0.583,��,5.2,��
2022/01/08,18:20,0.584,0.884,0.556,1.086,0.752,0.353,0.614,0.582,��,5.2,��
2022/01/08,18:30,0.583,0.882,0.559,1.084,0.751,0.352,0.615,0.583,��,5.6,��
2022/01/08,18:40,0.582,0.883,0.559,1.085,0.753,0.351,0.614,0.584,��,4.9,��
2022/01/08,18:50,0.583,0.883,0.558,1.086,0.751,0.353,0.614,0.584,��,5.8,��
2022/01/08,19:00,0.582,0.885,0.557,1.086,0.753,0.351,0.614,0.582,��,6.4,��
2022/01/08,19:10,0.582,0.883,0.558,1.084,0.752,0.353,0.615,0.583,��,6.6,��
2022/01/08,19:20,0.583,0.883,0.557,1.085,0.751,0.352,0.614,0.583,���쐼,6.0,��
2022/01/08,19:30,0.584,0.884,0.558,1.087,0.751,0.351,0.613,0.583,���쐼,5.6,��
2022/01/08,19:40,0.584,0.885,0.559,1.086,0.753,0.353,0.614,0.584,���쐼,5.0,��
2022/01/08,19:50,0.583,0.882,0.558,1.085,0.752,0.352,0.615,0.585,�쐼,4.8,��
2022/01/08,20:00,0.583,0.883,0.558,1.086,0.752,0.352,0.615,0.584,�쐼,5.2,��
2022/01/08,20:10,0.583,0.883,0.557,1.084,0.751,0.352,0.613,0.583,�쐼,5.6,��
2022/01/08,20:20,0.583,0.883,0.559,1.084,0.752,0.352,0.613,0.583,�쐼,5.3,��
2022/01/08,20:30,0.583,0.885,0.557,1.083,0.753,0.353,0.613,0.584,��쐼,5.1,��
2022/01/08,20:40,0.585,0.883,0.557,1.086,0.751,0.352,0.612,0.584,��쐼,4.7,��
2022/01/08,20:50,0.585,0.883,0.558,1.085,0.753,0.353,0.613,0.582,��쐼,4.5,��
2022/01/08,21:00,0.583,0.885,0.557,1.087,0.751,0.352,0.615,0.582,��쐼,4.1,��
2022/01/08,21:10,0.584,0.884,0.558,1.085,0.751,0.352,0.615,0.583,�쐼,4.5,��
2022/01/08,21:20,0.585,0.884,0.557,1.085,0.753,0.352,0.615,0.582,��쐼,5.1,��
2022/01/08,21:30,0.583,0.884,0.555,1.086,0.751,0.351,0.614,0.584,�쐼,5.7,��
2022/01/08,21:40,0.583,0.883,0.558,1.084,0.752,0.352,0.612,0.584,��쐼,5.1,��
2022/01/08,21:50,0.584,0.882,0.556,1.085,0.754,0.353,0.613,0.582,�쐼,4.8,��
2022/01/08,22:00,0.583,0.883,0.557,1.084,0.753,0.352,0.613,0.584,�쐼,5.2,��
2022/01/08,22:10,0.584,0.884,0.558,1.087,0.752,0.352,0.615,0.583,�쐼,5.3,��
2022/01/08,22:20,0.585,0.883,0.558,1.086,0.753,0.351,0.614,0.584,�쐼,6.3,��
2022/01/08,22:30,0.584,0.884,0.558,1.085,0.751,0.351,0.614,0.583,�쐼,6.7,��
2022/01/08,22:40,0.585,0.883,0.557,1.084,0.752,0.352,0.612,0.583,�쐼,5.9,��
2022/01/08,22:50,0.583,0.883,0.556,1.087,0.752,0.351,0.613,0.582,�쐼,5.6,��
2022/01/08,23:00,0.584,0.884,0.558,1.083,0.753,0.352,0.614,0.583,�쐼,5.6,��
2022/01/08,23:10,0.583,0.883,0.558,1.084,0.752,0.352,0.614,0.582,�쐼,5.6,��
2022/01/08,23:20,0.584,0.882,0.558,1.084,0.752,0.354,0.614,0.581,�쐼,6.2,��
2022/01/08,23:30,0.586,0.885,0.558,1.084,0.751,0.353,0.615,0.583,�쐼,5.8,��
2022/01/08,23:40,0.583,0.884,0.557,1.084,0.751,0.353,0.615,0.583,���쐼,6.1,��
2022/01/08,23:50,0.583,0.884,0.559,1.086,0.749,0.353,0.615,0.582,���쐼,6.0,��
